Weather Roundup
Issued by NWS Springfield, MO

Home | Current Version | Previous Version | Text Only | Print | Product List | Glossary On
Versions: 1 2 3 4 5 6 7 8 9 10 11 12 13 14 15 16 17 18 19 20 21 22 23 24 25 26 27 28 29 30 31 32 33 34 35 36 37 38 39 40 41 42 43 44 45 46 47 48 49 50
000
NZUS99 KSGF 050307
HRRSGF

HOURLY WEATHER
NATIONAL WEATHER SERVICE SPRINGFIELD MO
1000 PM CDT SAT JUL 04 2015

......SGF CWA......

CITY           SKY/WX    TMP DP  RH WIND       PRES   REMARKS
SPRINGFIELD    MOCLDY    74  69  85 S3        29.99R
JOPLIN         CLEAR     76  67  73 E8        29.96R HAZE
WEST PLAINS    CLEAR     72  68  87 SE3       30.03R
ROLLA          CLEAR     70  66  87 E5        30.01R
OSAGE BEACH    CLEAR     73  66  78 E5        30.00R
BRANSON        CLEAR     73  68  83 CALM      30.02R

......SURROUNDING SGF CWA......

CITY           SKY/WX    TMP DP  RH WIND       PRES   REMARKS
CHANUTE        PTCLDY    76  67  73 E7        29.95R
PARSONS        PTCLDY    78  68  71 CALM      29.96R
COFFEYVILLE    CLEAR     78  68  71 SE5       29.94R
EMPORIA        CLEAR     75  64  68 SE8       29.94R
GROVE OK       CLEAR     77  72  83 E3        29.96R
ROGERS AR      CLEAR     76  70  82 SE6       30.00R
SILOAM SPRINGS MOCLDY    75  66  73 SE5         N/A
HARRISON AR    CLEAR     73  70  90 SE7       30.01R
NEAR YELLVILLE   N/A     75  68  78 CALM      29.98R

......KANSAS AND MISSOURI......

CITY           SKY/WX    TMP DP  RH WIND       PRES   REMARKS
KANSAS CTY INT PTCLDY    71  64  78 SE6       29.97R
DOWNTOWN KC    PTCLDY    77  63  61 SE7       29.96R
COLUMBIA       CLEAR     73  66  78 E6        30.01R
SEDALIA        PTCLDY    73  65  75 SE6       30.00R
ST JOSEPH      PTCLDY    73  64  73 SE7       29.95R
ST LOUIS       PTCLDY    75  62  64 SE3       30.01R HAZE
SPIRIT OF STL  CLEAR     71  66  84 CALM      30.00R
KIRKSVILLE     CLEAR     67  62  84 SE3       30.01R
WICHITA        PTCLDY    81  65  58 SE7       29.91R
TOPEKA         CLEAR     73  64  73 SE7       29.95R
OLATHE         PTCLDY    73  63  70 SE3       29.97R

......TENNESSEE......

CITY           SKY/WX    TMP DP  RH WIND       PRES   REMARKS
MEMPHIS        CLOUDY    76  69  79 CALM      30.02R
NASHVILLE      LGT RAIN  70  70 100 CALM      30.03R

......ARKANSAS.......

CITY           SKY/WX    TMP DP  RH WIND       PRES   REMARKS
FAYETTEVILLE   CLEAR     72  70  93 S5        29.99R
FT SMITH       CLEAR     81  71  71 SW6       29.94R
LITTLE ROCK    PTCLDY    75  70  84 S6        29.99R

......OKLAHOMA.......

CITY           SKY/WX    TMP DP  RH WIND       PRES   REMARKS
TULSA          PTCLDY    80  70  71 SE6       29.93R
PONCA CITY     CLEAR     82  66  58 SE10      29.92R
MCALESTER      PTCLDY    73  68  84 S6        29.97R
OKLAHOMA CITY  PTCLDY    74  69  85 S8        29.94R

......IOWA............

CITY           SKY/WX    TMP DP  RH WIND       PRES   REMARKS
DES MOINES     MOCLDY    73  60  63 SE7       29.95R
QUAD CITIES    CLEAR     68  62  81 CALM      30.01R HAZE

......ILLINOIS........

CITY           SKY/WX    TMP DP  RH WIND       PRES   REMARKS
QUINCY         CLEAR     72  64  76 SE6       30.00R
CHICAGO        PTCLDY    68  57  68 SE6       30.02R



USA.gov is the U.S. government's official web portal to all federal, state and local government web resources and services.